Juneau, AK

4:46 AM AKDT on March 24, 2017 (GMT -0800)
Juneau International

Weather History for PAJN - January, 2012

Change the Weather History Date:

Wednesday, January 11, 2012

  Actual Average Record
Temperature  
Mean Temperature 36 °F 28 °F  
Max Temperature 38 °F 33 °F 48 °F (1944)
Min Temperature 33 °F 24 °F -15 °F (1972)
Degree Days  
Heating Degree Days 29 37  
Month to date heating degree days 337 407  
Since 1 July heating degree days 4159 4128  
Moisture  
Dew Point 33 °F    
Average Humidity 95    
Maximum Humidity 100    
Minimum Humidity 89    
Precipitation  
Precipitation 0.57 in 0.16 in 1.00 in (1939)
Month to date precipitation 2.96 1.90  
Year to date precipitation 2.96 1.90  
Snow  
Snow 0.30 in 0.90 in 12.50 in (1983)
Month to date snowfall 9.5 8.6  
Since 1 July snowfall 73.0 38.1  
Snow Depth 2.00 in    
Sea Level Pressure  
Sea Level Pressure 30.11 in    
Wind  
Wind Speed 23 mph (ESE)    
Max Wind Speed 36 mph    
Max Gust Speed 44 mph    
Visibility 6 miles    
Events Rain , Snow    
T = Trace of Precipitation, MM = Missing Value Source: NWS Daily Summary

Daily Weather History Graph

Daily Weather History Graph

Search for Another Location

Airport or City:

Trip Planner

Search our weather history database for the weather conditions in past years. The results will help you decide how hot, cold, wet, or windy it might be!

Date:

Astronomy

Jan. 11, 2012 Rise Set
Actual Time 8:39 AM AKST 3:33 PM AKST
Civil Twilight 7:49 AM AKST 4:23 PM AKST
Nautical Twilight 6:57 AM AKST 5:15 PM AKST
Astronomical Twilight 6:09 AM AKST 6:03 PM AKST
Moon 7:33 PM AKST (1/11) 9:08 AM AKST (1/11)
Length of Visible Light 8h 34m
Length of Day
6h 54m
Waning Gibbous, 93% of the Moon is Illuminated
Jan 11
Waning Gibbous
Jan 16
Last Quarter
Jan 22
New
Jan 30
First Quarter
Feb 7
Full

Hourly Weather History & Observations

Time (AKST) Temp. Windchill Dew Point Humidity Pressure Visibility Wind Dir Wind Speed Gust Speed Precip Events Conditions
12:18 AM 33.8 °F 21.3 °F 30.2 °F 87% 30.28 in 3.0 mi ESE 24.2 mph 32.2 mph 0.00 in Snow Light Snow
12:53 AM 34.0 °F 21.8 °F 30.9 °F 89% 30.27 in 7.0 mi ESE 23.0 mph 31.1 mph 0.00 in Snow Light Snow
1:47 AM 33.8 °F 21.0 °F 30.2 °F 87% 30.25 in 2.5 mi ESE 25.3 mph 32.2 mph 0.01 in Snow Light Snow
1:53 AM 33.1 °F 20.3 °F 32.0 °F 96% 30.24 in 2.5 mi ESE 24.2 mph 32.2 mph 0.01 in Snow Light Snow
2:00 AM 33.8 °F 21.3 °F 30.2 °F 87% 30.23 in 4.0 mi ESE 24.2 mph 32.2 mph 0.00 in Snow Light Snow
2:32 AM 35.6 °F 23.2 °F 30.2 °F 81% 30.22 in 6.0 mi ESE 26.5 mph 35.7 mph 0.00 in   Overcast
3:53 AM 34.0 °F 21.3 °F 32.0 °F 92% 30.19 in 8.0 mi ESE 25.3 mph 32.2 mph 0.00 in Rain , Snow Light Snow
4:00 AM 33.8 °F 21.3 °F 32.0 °F 93% 30.18 in 6.0 mi ESE 24.2 mph 32.2 mph 0.00 in Rain , Snow Light Snow
4:23 AM 33.8 °F 20.8 °F 32.0 °F 93% 30.17 in 6.0 mi ESE 26.5 mph 32.2 mph 0.02 in Rain , Snow Light Snow
4:53 AM 34.0 °F 21.3 °F 32.0 °F 92% 30.16 in 5.0 mi ESE 25.3 mph 35.7 mph 0.02 in Rain , Snow Light Snow
5:53 AM 34.0 °F 20.5 °F 32.0 °F 92% 30.12 in 6.0 mi ESE 28.8 mph 40.3 mph 0.02 in Rain , Snow Light Snow
6:14 AM 33.8 °F 21.0 °F 32.0 °F 93% 30.12 in 5.0 mi ESE 25.3 mph 38.0 mph 0.03 in Rain , Snow Light Snow
6:53 AM 35.1 °F 23.0 °F 32.0 °F 89% 30.11 in 4.0 mi ESE 24.2 mph 35.7 mph 0.05 in Rain , Snow Light Snow
7:53 AM 34.0 °F 20.3 °F 32.0 °F 92% 30.09 in 4.0 mi ESE 29.9 mph 42.6 mph 0.04 in Snow Light Snow
8:21 AM 33.8 °F 23.2 °F 32.0 °F 93% 30.09 in 1.8 mi East 17.3 mph 41.4 mph 0.05 in Snow Light Snow
8:53 AM 34.0 °F 22.1 °F 32.0 °F 92% 30.09 in 2.0 mi East 21.9 mph 43.7 mph 0.09 in Snow Light Snow
9:03 AM 33.8 °F 21.6 °F 32.0 °F 93% 30.10 in 3.0 mi ESE 23.0 mph 40.3 mph 0.00 in Rain , Snow Light Snow
9:53 AM 35.1 °F 23.3 °F 32.0 °F 89% 30.10 in 8.0 mi ESE 23.0 mph 36.8 mph 0.04 in Rain Light Rain
10:07 AM 35.6 °F 24.0 °F 33.8 °F 93% 30.10 in 8.0 mi ESE 23.0 mph 34.5 mph 0.00 in Rain Light Rain
10:20 AM 35.6 °F 23.4 °F 33.8 °F 93% 30.11 in 6.0 mi ESE 25.3 mph 31.1 mph 0.00 in Rain , Snow Light Rain
10:53 AM 34.0 °F 22.1 °F 33.1 °F 96% 30.11 in 6.0 mi ESE 21.9 mph 34.5 mph 0.02 in Rain Light Rain
11:22 AM 33.8 °F 21.6 °F 33.8 °F 100% 30.11 in 6.0 mi ESE 23.0 mph 31.1 mph 0.02 in Rain Light Rain
11:32 AM 35.6 °F 23.4 °F 33.8 °F 93% 30.11 in 7.0 mi ESE 25.3 mph 34.5 mph 0.02 in Rain Light Rain
11:53 AM 35.1 °F 23.0 °F 33.1 °F 92% 30.11 in 7.0 mi ESE 24.2 mph 34.5 mph 0.02 in Rain Light Rain
12:53 PM 36.0 °F 24.4 °F 34.0 °F 93% 30.12 in 8.0 mi ESE 23.0 mph 32.2 mph 0.03 in Rain Light Rain
1:14 PM 35.6 °F 24.5 °F 33.8 °F 93% 30.12 in 9.0 mi ESE 20.7 mph 28.8 mph 0.00 in Rain Light Rain
1:53 PM 36.0 °F 26.0 °F 34.0 °F 93% 30.12 in 9.0 mi ESE 17.3 mph - 0.01 in Rain Light Rain
2:53 PM 37.0 °F 26.4 °F 34.0 °F 89% 30.10 in 9.0 mi East 20.7 mph 27.6 mph 0.00 in   Overcast
3:53 PM 37.0 °F 27.4 °F 35.1 °F 93% 30.10 in 9.0 mi ESE 17.3 mph - 0.00 in   Overcast
4:53 PM 37.9 °F 28.5 °F 35.1 °F 89% 30.09 in 10.0 mi ESE 17.3 mph 25.3 mph N/A   Overcast
5:53 PM 37.0 °F 27.4 °F 36.0 °F 96% 30.07 in 10.0 mi ESE 17.3 mph - 0.00 in   Light Drizzle
6:53 PM 37.0 °F 27.0 °F 36.0 °F 96% 30.05 in 8.0 mi ESE 18.4 mph - 0.00 in Rain Light Rain
7:53 PM 37.0 °F 26.2 °F 36.0 °F 96% 30.03 in 7.0 mi ESE 21.9 mph 29.9 mph 0.00 in Rain Light Rain
8:53 PM 37.0 °F 26.2 °F 36.0 °F 96% 29.99 in 7.0 mi ESE 21.9 mph 28.8 mph 0.01 in Rain Light Rain
9:53 PM 36.0 °F 24.2 °F 34.0 °F 93% 29.97 in 8.0 mi ESE 24.2 mph 31.1 mph 0.05 in Rain Light Rain
10:53 PM 35.1 °F 24.1 °F 33.1 °F 92% 29.94 in 5.0 mi ESE 19.6 mph 28.8 mph 0.08 in Rain Light Rain
11:03 PM 35.6 °F 25.2 °F 33.8 °F 93% 29.93 in 6.0 mi ESE 18.4 mph - 0.02 in Rain Light Rain
11:50 PM 33.8 °F 23.9 °F 33.8 °F 100% 29.91 in 8.0 mi East 15.0 mph - 0.07 in Rain Light Rain
11:53 PM 34.0 °F 25.0 °F 33.1 °F 96% 29.91 in 8.0 mi East 12.7 mph - 0.07 in Rain Light Rain